Location: Chuathbaluk
(61.5726°N, 159.2454°W)
Time: 12:16:00
(UTC+00:00)

N. Korean satellite - Pass Details

Date: 28 October 2020
Orbit: 453 x 503 km, 97.2° (Epoch: 04 December)

Event Time Altitude Azimuth Distance (km) Brightness Sun altitude
Rises 04:39:03 0° 220° (SW) 2,538 10.9 -13.8°
Reaches altitude 10° 04:42:23 10° 255° (WSW) 1,651 10.6 -14.2°
Maximum altitude 04:43:41 12° 276° (W) 1,550 10.5 -14.4°
Drops below altitude 10° 04:44:58 10° 298° (WNW) 1,645 10.2 -14.5°
Sets 04:48:17 0° 333° (NNW) 2,516 10.6 -14.9°
